SCP
-0 -0 -0 0 -0 -0 0 0 0 0 -0 -0 0 0 -0 -0 0 -0 0 0 -0 -0 0 -0 -0 -0 -0 -0 -0 -0 -0 0 0 0 0 0 0 0 0 0 0 0 0 0 0 0 0 0 0
-0 0 0 0 -0 -0 0 0 -0 0 -0 -0 -0 -0 -0 -0 -0 -0 0 -0 -0 -0 -0 -0 -0 -0 -0 -0 -0 -0 0 0 0 0 0 0 0 0 0 0 0 0 0 0 0 0 0 0 0
0 0 0 -0 0 -0 0 0 0 0 -0 0 0 -0 -0 -0 -0 -0 -0 -0 -0 -0 -0 -0 -0 -0 -0 -0 -0 0 0 0 0 0 0 0 0 0 0 0 0 0 0 0 0 0 0 0 0
0 0 -0 -0 -0 0 -0 -0 -0 0 0 0 -0 -0 -0 0 -0 -0 -0 -0 -0 -0 -0 -0 -0 -0 -0 -0 0 0 0 0 0 0 0 0 0 0 0 0 0 0 0 0 0 0 0 0 0
0 0 -0 -0 0 -0 -0 -0 -0 0 0 0 0 -0 0 -0 -0 -0 -0 -0 -0 -0 0 -0 -0 -0 -0 0 0 0 0 0 0 0 0 0 0 0 0 0 0 0 0 0 0 0 0 0 0
0 0 -0 0 -0 -0 -0 0 -0 -0 -0 -0 -0 -0 0 -0 -0 -0 -0 -0 -0 0 0 0 0 0 0 0 0 0 0 0 0 0 0 0 0 0 0 0 0 0 0 0 0 0 0 0 0
0 -0 -0 -0 -0 -0 -0 0 -0 -0 -0 -0 -0 0 0 0 0 -0 -0 -0 0 0 0 0 0 0 0 0 0 0 0 0 0 0 0 0 0 0 0 0 0 0 0 0 0 0 0 0 0
0 0 -0 -0 -0 -0 -0 -0 -0 -0 -0 -0 -0 -0 0 0 -0 0 0 0 0 0 0 0 0 0 0 0 0 0 0 0 0 0 0 0 0 0 0 0 0 0 0 0 0 0 0 0 0
0 0 -0 -0 0 0 0 0 0 0 0 0 0 0 -0 -0 0 0 0 0 0 0 0 0 0 0 0 0 0 0 0 0 0 0 0 0 0 0 0 0 0 0 0 0 0 0 0 0 0
0 -0 0 0 0 0 0 0 0 0 0 0 0 -0 0 0 0 0 0 0 0 0 0 0 0 0 0 0 0 0 0 0 0 0 0 0 0 0 0 0 0 0 0 0 0 0 0 0 0
-0 -0 0 0 0 -0 0 0 0 0 0 0 0 -0 0 0 0 0 0 0 0 0 0 0 0 0 0 -0 -0 -0 0 0 0 0 0 0 0 0 0 0 0 0 0 0 0 0 0 0 0
0 0 0 0 0 0 0 0 0 0 0 0 0 0 0 0 0 0 0 0 0 0 0 0 -0 -0 -0 -0 -0 0 0 0 0 0 0 0 0 0 0 0 0 0 0 0 0 0 0 0 0
-0 0 0 0 -0 0 0 0 0 0 0 0 0 0 0 0 0 0 0 0 0 0 0 -0 -0 -0 -0 -0 -0 -0 0 0 0 0 0 0 0 0 0 0 0 0 0 0 0 0 0 0 0
0 -0 0 0 0 0 0 0 0 0 0 0 0 0 0 0 0 0 0 -0 0 0 0 -0 -0 -0 -0 -0 -0 0 0 0 0 0 0 0 0 0 0 0 0 0 0 0 0 0 0 0 0
0 0 0 0 0 0 0 0 0 0 0 0 0 0 0 0 0 0 -0 0 0 0 0 -0 -0 -0 -0 -0 0 0 0 0 0 0 0 0 0 0 0 0 0 0 0 0 0 0 0 0 0
0 0 0 0 0 0 0 0 0 0 0 0 0 0 0 -0 0 0 0 -0 0 0 0 0 -0 -0 0 0 0 0 0 0 0 0 0 0 0 0 0 0 0 0 0 0 0 0 0 0 0
0 0 0 0 0 0 0 0 0 0 0 0 0 0 0 0 0 0 -0 0 0 0 0 0 0 0 0 0 0 0 0 0 0 0 0 0 0 0 0 0 0 0 0 0 0 0 0 0 0
0 0 0 0 0 0 0 0 0 0 0 0 0 0 0 0 0 -0 -0 0 0 0 0 0 0 0 0 0 0 0 0 0 0 0 0 0 0 0 0 0 0 0 0 0 0 0 0 0 0
0 0 0 0 0 0 0 0 0 0 0 0 0 0 0 0 0 0 0 0 0 0 0 0 0 0 0 0 0 0 0 0 0 0 0 0 0 0 0 0 0 0 0 0 0 0 0 0 0
0 0 0 0 0 0 0 0 0 0 0 0 0 0 0 0 0 0 0 0 0 0 0 0 0 0 0 0 0 0 0 0 0 0 0 0 0 0 0 0 0 0 0 0 0 0 0 0 0
0 0 0 0 0 0 0 0 0 0 0 0 0 -0 -0 -0 0 0 0 0 0 -0 -0 0 0 0 0 0 0 0 0 0 0 0 0 0 0 0 0 0 0 0 0 0 0 0 0 0 0
0 0 0 0 0 0 0 0 0 0 0 0 0 0 -0 0 0 0 0 0 0 0 0 0 0 0 0 0 0 0 0 0 0 0 0 0 0 0 0 0 0 0 0 0 0 0 0 0 0
0 0 0 0 0 0 0 0 0 0 0 0 0 0 0 0 0 0 0 0 0 0 0 0 0 0 0 0 0 0 0 0 0 0 0 0 0 0 0 0 0 0 0 0 0 0 0 0 0
0 0 0 0 0 0 0 0 0 0 0 0 0 0 0 0 0 0 0 0 0 0 0 0 0 0 0 0 0 0 0 0 0 0 0 0 0 0 0 0 0 0 0 0 0 0 0 0 0
0 0 0 0 0 0 0 0 0 0 0 0 0 0 0 0 0 0 0 0 0 0 0 0 0 0 0 0 0 0 0 0 0 0 0 0 0 0 0 0 0 0 0 0 0 0 0 0 0
0 0 0 0 0 0 0 0 0 0 0 0 0 0 0 0 0 0 0 0 0 0 0 0 0 0 0 0 0 0 0 0 0 0 0 0 0 0 0 0 0 0 0 0 -0 0 0 0 0
0 0 0 0 0 0 0 0 0 0 0 0 0 0 0 0 0 0 0 0 0 0 0 0 0 0 0 0 0 0 0 0 0 0 0 -0 0 0 0 0 0 0 0 0 0 0 0 -0 -0
0 0 0 0 0 0 0 0 0 0 0 0 0 0 0 0 0 0 0 0 0 0 0 0 0 0 0 0 0 0 0 0 0 0 0 0 0 0 0 0 0 0 0 0 0 0 -0 -0 -0
0 0 0 0 0 0 0 0 0 0 0 0 0 0 0 0 0 0 0 0 0 0 0 0 0 0 0 0 0 0 0 0 0 0 0 0 0 0 0 0 0 0 -0 0 0 -0 -0 -0 -0
0 0 0 0 0 0 0 0 0 0 0 0 0 0 0 0 0 0 0 0 0 0 0 0 0 0 0 0 0 0 0 0 0 0 0 0 0 0 0 0 0 -0 0 0 -0 -0 -0 0 0
Wind_Speed_500mb
14 9 7 6 2 12 11 12 7 18 7 6 13 11 19 19 8 14 19 19 17 20 20 20 17 20 20 19 19 19 20 18 16 12 11 10 9 9 7 5 5 9 11 9 3 1 3 6 5
12 5 7 5 8 13 8 14 23 17 25 24 20 11 12 11 15 27 18 21 22 24 24 24 23 23 22 21 19 17 15 13 13 14 13 10 8 6 6 6 5 3 8 5 1 7 6 4 5
7 9 4 6 6 10 13 23 20 17 8 9 10 13 9 9 13 25 26 23 21 23 24 23 20 19 20 19 17 16 14 13 13 14 15 13 10 8 7 6 6 4 1 6 4 7 11 11 12
3 7 12 9 25 6 13 12 6 11 11 12 19 18 14 12 16 24 29 23 19 21 20 18 17 19 17 15 13 12 12 12 12 11 11 12 14 14 12 10 8 9 7 3 6 13 14 14 14
3 9 9 11 11 8 7 5 6 10 8 9 9 16 13 23 33 30 25 19 13 19 21 20 18 18 18 17 17 16 14 14 14 13 14 15 16 16 15 14 12 13 13 11 10 11 15 20 19
5 8 10 13 10 6 4 10 17 11 14 17 21 22 11 29 25 27 23 21 22 23 23 23 22 21 21 21 20 19 20 21 20 19 17 16 16 17 15 17 19 20 20 19 20 19 18 19 23
5 6 10 15 12 6 8 12 17 16 19 12 14 12 22 25 27 27 27 25 24 24 21 22 22 23 22 23 24 25 25 25 24 24 25 26 25 24 24 23 24 24 21 21 22 23 25 27 26
9 7 8 6 12 5 15 8 15 11 10 10 10 8 14 33 32 33 29 26 23 22 21 24 24 26 28 29 30 27 28 27 25 23 24 24 26 31 35 32 29 30 32 29 28 25 25 29 32
8 7 8 8 10 10 19 7 5 7 18 11 6 15 27 40 37 31 28 29 23 20 21 21 22 29 33 36 39 38 35 32 27 23 22 22 26 27 29 33 34 34 34 36 39 36 31 29 32
4 5 7 2 7 12 19 7 13 6 15 9 22 28 47 45 40 32 27 25 21 22 21 21 25 32 41 45 44 41 36 30 26 24 23 23 24 27 29 33 36 38 38 35 38 43 41 37 33
8 7 12 7 19 28 17 14 6 15 8 9 28 43 44 43 36 31 28 25 21 23 22 23 27 38 44 46 42 36 28 24 22 20 17 18 21 27 33 36 37 34 32 33 33 37 43 42 34
11 15 9 17 18 16 12 13 11 9 5 16 30 38 46 41 35 30 28 24 21 18 20 21 29 37 47 51 43 31 22 19 17 15 17 20 25 31 35 29 27 27 28 26 25 30 39 44 41
17 16 18 24 27 26 24 20 11 11 9 23 34 38 38 33 29 28 23 14 13 18 21 20 29 46 54 53 45 31 22 16 15 16 20 26 31 31 26 25 25 25 26 28 26 25 29 36 46
12 25 28 17 20 17 17 12 4 10 15 25 28 19 27 33 31 18 20 14 8 13 14 14 33 50 54 53 47 33 25 20 20 22 26 28 29 27 27 29 29 26 28 29 29 29 27 28 35
19 17 18 18 10 10 10 15 13 16 18 21 18 17 25 22 24 26 21 20 7 3 11 16 35 46 48 52 49 34 28 26 24 24 25 28 26 25 27 30 29 27 30 31 29 28 30 28 26
5 7 4 10 6 4 12 7 12 14 20 18 17 20 23 30 17 20 20 16 12 6 6 18 30 40 42 49 51 35 31 29 29 28 24 25 23 24 27 29 28 31 33 34 34 33 31 28 25
5 0 4 6 11 7 9 10 17 14 15 17 19 24 28 27 24 22 13 16 17 13 11 17 24 32 38 44 45 32 29 28 26 24 20 20 21 25 25 27 30 31 34 34 38 39 36 33 29
5 8 7 6 8 16 16 13 15 15 15 17 19 17 22 25 31 23 23 18 24 20 17 18 24 28 36 42 46 32 29 29 26 23 22 23 25 24 26 27 29 32 35 34 39 42 33 30 28
12 13 14 10 8 16 16 13 7 8 12 20 18 19 21 21 22 27 28 25 31 27 26 23 26 28 31 39 42 31 26 24 23 23 22 24 25 26 27 28 29 33 33 31 39 39 32 20 20
20 29 13 12 8 8 12 9 7 8 4 6 21 33 20 13 11 24 34 31 22 16 33 29 27 33 29 35 35 26 24 26 30 28 22 25 26 25 25 28 27 29 26 28 33 31 32 26 18
10 7 19 14 19 12 13 5 2 8 7 8 12 22 27 25 19 17 30 31 18 13 24 29 30 29 30 34 34 23 23 26 28 31 28 22 19 19 25 26 24 25 23 28 29 31 30 31 26
10 7 26 32 20 4 3 2 4 5 10 11 13 19 26 26 22 17 21 27 32 31 27 30 35 32 32 36 30 22 25 30 32 35 33 24 20 22 25 20 22 21 22 24 30 34 34 32 32
7 13 23 23 12 13 6 6 6 5 3 9 8 17 21 23 23 17 23 24 21 24 30 34 33 30 30 31 26 22 27 36 39 38 32 25 22 22 24 25 20 20 22 25 30 33 35 31 28
29 29 19 9 5 7 5 4 5 2 6 11 11 11 17 22 26 29 22 21 24 25 28 31 32 24 28 29 28 21 29 35 39 37 30 24 25 23 24 23 17 18 21 25 28 29 28 23 36
10 14 4 8 9 2 3 4 5 7 7 9 19 20 15 15 20 22 18 21 23 25 25 30 23 24 26 31 30 20 30 35 39 34 30 28 27 26 27 14 15 16 23 24 26 27 30 32 35
15 5 8 14 11 3 5 5 6 13 8 7 12 13 15 18 17 22 22 25 23 22 23 30 26 27 24 32 31 21 30 32 28 25 26 25 26 23 12 14 13 16 21 22 27 23 31 33 36
6 5 5 8 3 5 4 5 2 8 17 21 27 32 36 34 27 24 20 25 33 36 27 31 30 31 25 29 33 21 27 27 18 16 18 26 28 25 21 16 12 13 21 21 27 25 25 32 38
9 10 5 1 4 5 5 3 3 23 23 26 37 39 39 33 34 35 35 37 33 36 29 37 35 34 28 25 36 24 27 20 13 14 20 18 22 24 26 26 13 12 18 21 26 24 25 22 30
3 2 8 5 5 5 3 5 15 12 14 18 24 29 33 34 38 40 40 51 43 40 40 41 38 38 36 29 30 26 30 22 18 17 21 27 20 19 24 27 11 15 16 18 24 28 24 18 16
7 8 4 6 5 3 4 5 9 10 15 17 24 29 30 31 36 39 35 41 51 46 40 38 35 41 42 38 34 28 33 30 25 20 21 25 29 23 19 20 19 17 14 14 19 24 21 15 16
Wind_Direction_500mb
128 88 33 22 66 65 70 77 57 121 88 45 83 48 86 48 6 112 137 118 118 106 94 94 88 90 83 72 69 60 50 41 39 43 39 42 50 44 40 45 56 68 54 57 38 319 209 270 236
109 61 81 74 88 95 48 73 80 84 112 101 85 88 60 71 79 105 114 115 106 95 89 89 84 81 82 82 78 74 66 51 39 30 31 28 31 25 22 19 11 80 130 111 228 219 233 222 232
77 101 87 65 82 92 109 85 109 93 76 134 118 75 83 91 96 127 121 116 112 102 94 89 86 87 87 85 81 80 76 61 42 29 23 16 11 7 4 1 2 3 198 231 257 237 232 223 230
26 71 65 68 99 101 130 147 99 139 95 84 113 90 85 116 126 126 119 113 111 106 97 92 95 93 86 82 78 71 63 56 45 29 17 3 359 352 342 332 320 306 296 268 248 258 245 244 238
39 83 83 94 88 133 140 149 140 147 122 117 155 119 91 106 126 127 123 117 106 98 93 94 86 79 71 61 51 42 29 21 15 12 14 18 8 358 346 331 318 297 286 278 258 244 252 243 243
18 88 108 107 102 120 118 144 146 136 116 103 111 111 89 134 132 128 123 119 107 99 91 80 70 59 50 41 30 22 10 2 0 356 352 348 345 344 337 325 318 307 299 286 270 256 251 253 246
44 62 109 119 140 173 137 124 121 129 126 96 117 109 135 143 138 130 126 116 106 94 84 72 59 48 36 23 11 2 354 348 342 334 332 329 327 323 323 317 311 302 295 290 281 271 259 252 252
100 71 96 85 160 116 136 112 112 133 95 108 102 117 143 153 147 143 130 117 108 95 79 65 49 30 17 8 358 351 345 340 331 320 319 318 317 318 317 314 306 301 297 291 286 285 277 263 258
93 105 124 155 169 140 161 131 106 87 122 82 130 150 169 155 154 146 131 117 105 88 68 46 30 16 4 352 344 336 328 323 318 313 312 313 314 317 317 315 311 302 292 283 279 277 278 277 270
59 100 103 157 124 151 156 142 139 129 137 82 115 145 159 158 160 155 136 119 100 76 51 40 16 5 356 348 340 330 324 325 327 327 324 319 319 321 320 315 311 306 301 290 275 270 269 271 273
49 74 133 105 109 138 135 124 131 147 171 162 153 152 161 161 168 153 136 115 87 69 54 30 14 3 0 355 352 348 346 351 352 353 349 346 337 328 324 321 317 312 303 294 282 271 265 267 265
101 59 103 123 114 116 107 114 106 66 332 187 173 167 170 171 167 151 139 121 98 76 46 27 13 4 3 5 359 358 1 354 350 346 340 336 337 333 331 335 342 340 337 329 311 278 263 254 257
100 122 85 109 104 97 110 89 84 48 118 148 171 169 172 172 160 156 145 138 112 65 32 21 21 13 10 8 1 0 6 1 347 342 338 337 339 343 350 345 348 347 346 337 335 322 284 264 251
99 113 113 88 93 112 111 101 84 77 123 140 154 151 167 167 171 161 161 183 134 65 30 20 23 16 13 9 3 6 4 352 342 333 333 338 346 351 354 352 347 346 346 343 334 328 318 291 268
113 92 94 46 67 109 108 68 66 115 119 114 116 147 170 175 162 137 170 185 154 109 26 22 21 12 9 6 3 2 10 5 355 343 340 342 345 350 353 352 357 358 355 355 344 329 319 309 289
101 108 156 20 19 116 333 62 126 149 150 144 168 170 165 176 190 184 198 209 203 223 345 13 13 3 3 2 359 352 353 353 348 343 336 349 351 348 350 352 348 348 348 345 342 335 322 308 293
48 220 137 116 29 116 30 125 173 164 168 174 194 195 203 209 208 204 207 240 242 243 274 347 356 354 355 355 357 348 342 338 339 344 332 337 339 340 341 346 345 341 343 343 337 331 320 311 307
190 187 112 102 55 95 90 112 149 182 188 200 230 216 216 217 220 211 233 271 245 246 276 305 331 341 347 349 355 349 340 337 334 332 329 330 331 327 334 337 340 342 344 343 339 335 327 312 308
131 140 119 107 124 70 88 108 49 223 206 225 230 220 226 229 229 230 232 259 251 256 263 284 309 329 331 343 349 350 351 354 347 335 327 326 326 328 327 333 336 341 344 346 344 342 337 320 304
138 138 124 107 142 110 142 99 120 88 45 292 234 225 235 253 258 251 247 263 284 287 265 270 300 315 324 340 344 349 353 360 3 357 330 321 323 321 325 326 330 336 343 348 351 355 352 340 315
180 191 173 149 136 103 143 132 205 213 276 300 249 242 252 265 278 268 256 264 252 256 257 270 290 307 323 334 338 343 347 347 348 351 347 329 331 330 330 323 327 331 336 346 349 347 344 341 330
233 280 155 144 169 161 238 275 255 304 303 283 263 247 248 254 264 275 249 264 253 271 266 281 291 303 315 327 331 332 337 335 336 340 344 343 331 327 327 325 322 326 336 345 345 345 345 338 330
60 112 132 141 110 144 130 250 96 299 327 2 289 254 249 247 254 288 276 269 268 276 275 280 288 298 311 322 326 326 337 333 335 337 332 334 331 326 322 322 322 331 334 339 340 343 340 332 336
123 113 100 108 136 220 95 288 92 27 341 336 349 322 274 257 255 279 294 289 268 283 281 289 288 298 314 328 330 320 332 331 334 335 329 324 329 328 326 322 330 336 335 334 345 351 352 348 354
150 164 179 222 213 335 115 187 61 326 309 300 331 331 326 287 264 276 289 287 297 279 295 291 282 297 315 331 331 310 322 331 335 339 338 328 322 322 324 317 343 343 342 345 348 351 352 351 349
157 287 289 287 285 99 157 156 87 342 281 306 315 322 344 343 316 298 295 303 297 304 293 301 284 289 315 331 328 308 324 332 340 357 359 358 345 336 344 335 352 349 351 355 353 352 351 360 349
156 243 45 108 103 214 127 152 182 44 51 13 11 7 358 354 342 329 330 324 316 315 287 301 287 286 304 329 328 303 315 329 336 356 8 10 10 11 2 342 345 345 351 1 357 352 342 351 350
39 117 231 151 232 241 153 187 41 347 358 20 26 20 14 19 19 12 356 344 328 323 304 291 291 280 291 318 326 293 300 312 326 330 333 344 356 354 343 336 304 322 346 349 348 344 343 338 346
5 95 65 91 350 291 221 128 360 357 35 45 42 36 28 23 23 21 10 359 352 340 319 302 297 287 288 296 312 292 291 284 292 303 315 322 317 343 346 2 341 310 319 332 342 349 353 346 354
69 44 346 290 157 62 329 119 30 57 48 33 22 5 358 2 356 344 334 337 344 335 337 325 311 315 295 287 299 294 277 287 277 286 304 310 314 306 327 333 344 328 318 315 338 5 14 22 22
Wind_Speed_850mb
14 9 7 6 2 12 11 12 7 18 7 6 13 11 19 19 8 14 19 19 17 20 20 20 17 20 20 19 19 19 20 18 16 12 11 10 9 9 7 5 5 9 11 9 3 1 3 6 5
12 5 7 5 8 13 8 14 23 17 25 24 20 11 12 11 15 27 18 21 22 24 24 24 23 23 22 21 19 17 15 13 13 14 13 10 8 6 6 6 5 3 8 5 1 7 6 4 5
7 9 4 6 6 10 13 23 20 17 8 9 10 13 9 9 13 25 26 23 21 23 24 23 20 19 20 19 17 16 14 13 13 14 15 13 10 8 7 6 6 4 1 6 4 7 11 11 12
3 7 12 9 25 6 13 12 6 11 11 12 19 18 14 12 16 24 29 23 19 21 20 18 17 19 17 15 13 12 12 12 12 11 11 12 14 14 12 10 8 9 7 3 6 13 14 14 14
3 9 9 11 11 8 7 5 6 10 8 9 9 16 13 23 33 30 25 19 13 19 21 20 18 18 18 17 17 16 14 14 14 13 14 15 16 16 15 14 12 13 13 11 10 11 15 20 19
5 8 10 13 10 6 4 10 17 11 14 17 21 22 11 29 25 27 23 21 22 23 23 23 22 21 21 21 20 19 20 21 20 19 17 16 16 17 15 17 19 20 20 19 20 19 18 19 23
5 6 10 15 12 6 8 12 17 16 19 12 14 12 22 25 27 27 27 25 24 24 21 22 22 23 22 23 24 25 25 25 24 24 25 26 25 24 24 23 24 24 21 21 22 23 25 27 26
9 7 8 6 12 5 15 8 15 11 10 10 10 8 14 33 32 33 29 26 23 22 21 24 24 26 28 29 30 27 28 27 25 23 24 24 26 31 35 32 29 30 32 29 28 25 25 29 32
8 7 8 8 10 10 19 7 5 7 18 11 6 15 27 40 37 31 28 29 23 20 21 21 22 29 33 36 39 38 35 32 27 23 22 22 26 27 29 33 34 34 34 36 39 36 31 29 32
4 5 7 2 7 12 19 7 13 6 15 9 22 28 47 45 40 32 27 25 21 22 21 21 25 32 41 45 44 41 36 30 26 24 23 23 24 27 29 33 36 38 38 35 38 43 41 37 33
8 7 12 7 19 28 17 14 6 15 8 9 28 43 44 43 36 31 28 25 21 23 22 23 27 38 44 46 42 36 28 24 22 20 17 18 21 27 33 36 37 34 32 33 33 37 43 42 34
11 15 9 17 18 16 12 13 11 9 5 16 30 38 46 41 35 30 28 24 21 18 20 21 29 37 47 51 43 31 22 19 17 15 17 20 25 31 35 29 27 27 28 26 25 30 39 44 41
17 16 18 24 27 26 24 20 11 11 9 23 34 38 38 33 29 28 23 14 13 18 21 20 29 46 54 53 45 31 22 16 15 16 20 26 31 31 26 25 25 25 26 28 26 25 29 36 46
12 25 28 17 20 17 17 12 4 10 15 25 28 19 27 33 31 18 20 14 8 13 14 14 33 50 54 53 47 33 25 20 20 22 26 28 29 27 27 29 29 26 28 29 29 29 27 28 35
19 17 18 18 10 10 10 15 13 16 18 21 18 17 25 22 24 26 21 20 7 3 11 16 35 46 48 52 49 34 28 26 24 24 25 28 26 25 27 30 29 27 30 31 29 28 30 28 26
5 7 4 10 6 4 12 7 12 14 20 18 17 20 23 30 17 20 20 16 12 6 6 18 30 40 42 49 51 35 31 29 29 28 24 25 23 24 27 29 28 31 33 34 34 33 31 28 25
5 0 4 6 11 7 9 10 17 14 15 17 19 24 28 27 24 22 13 16 17 13 11 17 24 32 38 44 45 32 29 28 26 24 20 20 21 25 25 27 30 31 34 34 38 39 36 33 29
5 8 7 6 8 16 16 13 15 15 15 17 19 17 22 25 31 23 23 18 24 20 17 18 24 28 36 42 46 32 29 29 26 23 22 23 25 24 26 27 29 32 35 34 39 42 33 30 28
12 13 14 10 8 16 16 13 7 8 12 20 18 19 21 21 22 27 28 25 31 27 26 23 26 28 31 39 42 31 26 24 23 23 22 24 25 26 27 28 29 33 33 31 39 39 32 20 20
20 29 13 12 8 8 12 9 7 8 4 6 21 33 20 13 11 24 34 31 22 16 33 29 27 33 29 35 35 26 24 26 30 28 22 25 26 25 25 28 27 29 26 28 33 31 32 26 18
10 7 19 14 19 12 13 5 2 8 7 8 12 22 27 25 19 17 30 31 18 13 24 29 30 29 30 34 34 23 23 26 28 31 28 22 19 19 25 26 24 25 23 28 29 31 30 31 26
10 7 26 32 20 4 3 2 4 5 10 11 13 19 26 26 22 17 21 27 32 31 27 30 35 32 32 36 30 22 25 30 32 35 33 24 20 22 25 20 22 21 22 24 30 34 34 32 32
7 13 23 23 12 13 6 6 6 5 3 9 8 17 21 23 23 17 23 24 21 24 30 34 33 30 30 31 26 22 27 36 39 38 32 25 22 22 24 25 20 20 22 25 30 33 35 31 28
29 29 19 9 5 7 5 4 5 2 6 11 11 11 17 22 26 29 22 21 24 25 28 31 32 24 28 29 28 21 29 35 39 37 30 24 25 23 24 23 17 18 21 25 28 29 28 23 36
10 14 4 8 9 2 3 4 5 7 7 9 19 20 15 15 20 22 18 21 23 25 25 30 23 24 26 31 30 20 30 35 39 34 30 28 27 26 27 14 15 16 23 24 26 27 30 32 35
15 5 8 14 11 3 5 5 6 13 8 7 12 13 15 18 17 22 22 25 23 22 23 30 26 27 24 32 31 21 30 32 28 25 26 25 26 23 12 14 13 16 21 22 27 23 31 33 36
6 5 5 8 3 5 4 5 2 8 17 21 27 32 36 34 27 24 20 25 33 36 27 31 30 31 25 29 33 21 27 27 18 16 18 26 28 25 21 16 12 13 21 21 27 25 25 32 38
9 10 5 1 4 5 5 3 3 23 23 26 37 39 39 33 34 35 35 37 33 36 29 37 35 34 28 25 36 24 27 20 13 14 20 18 22 24 26 26 13 12 18 21 26 24 25 22 30
3 2 8 5 5 5 3 5 15 12 14 18 24 29 33 34 38 40 40 51 43 40 40 41 38 38 36 29 30 26 30 22 18 17 21 27 20 19 24 27 11 15 16 18 24 28 24 18 16
7 8 4 6 5 3 4 5 9 10 15 17 24 29 30 31 36 39 35 41 51 46 40 38 35 41 42 38 34 28 33 30 25 20 21 25 29 23 19 20 19 17 14 14 19 24 21 15 16
Wind_Direction_850mb
128 88 33 22 66 65 70 77 57 121 88 45 83 48 86 48 6 112 137 118 118 106 94 94 88 90 83 72 69 60 50 41 39 43 39 42 50 44 40 45 56 68 54 57 38 319 209 270 236
109 61 81 74 88 95 48 73 80 84 112 101 85 88 60 71 79 105 114 115 106 95 89 89 84 81 82 82 78 74 66 51 39 30 31 28 31 25 22 19 11 80 130 111 228 219 233 222 232
77 101 87 65 82 92 109 85 109 93 76 134 118 75 83 91 96 127 121 116 112 102 94 89 86 87 87 85 81 80 76 61 42 29 23 16 11 7 4 1 2 3 198 231 257 237 232 223 230
26 71 65 68 99 101 130 147 99 139 95 84 113 90 85 116 126 126 119 113 111 106 97 92 95 93 86 82 78 71 63 56 45 29 17 3 359 352 342 332 320 306 296 268 248 258 245 244 238
39 83 83 94 88 133 140 149 140 147 122 117 155 119 91 106 126 127 123 117 106 98 93 94 86 79 71 61 51 42 29 21 15 12 14 18 8 358 346 331 318 297 286 278 258 244 252 243 243
18 88 108 107 102 120 118 144 146 136 116 103 111 111 89 134 132 128 123 119 107 99 91 80 70 59 50 41 30 22 10 2 0 356 352 348 345 344 337 325 318 307 299 286 270 256 251 253 246
44 62 109 119 140 173 137 124 121 129 126 96 117 109 135 143 138 130 126 116 106 94 84 72 59 48 36 23 11 2 354 348 342 334 332 329 327 323 323 317 311 302 295 290 281 271 259 252 252
100 71 96 85 160 116 136 112 112 133 95 108 102 117 143 153 147 143 130 117 108 95 79 65 49 30 17 8 358 351 345 340 331 320 319 318 317 318 317 314 306 301 297 291 286 285 277 263 258
93 105 124 155 169 140 161 131 106 87 122 82 130 150 169 155 154 146 131 117 105 88 68 46 30 16 4 352 344 336 328 323 318 313 312 313 314 317 317 315 311 302 292 283 279 277 278 277 270
59 100 103 157 124 151 156 142 139 129 137 82 115 145 159 158 160 155 136 119 100 76 51 40 16 5 356 348 340 330 324 325 327 327 324 319 319 321 320 315 311 306 301 290 275 270 269 271 273
49 74 133 105 109 138 135 124 131 147 171 162 153 152 161 161 168 153 136 115 87 69 54 30 14 3 0 355 352 348 346 351 352 353 349 346 337 328 324 321 317 312 303 294 282 271 265 267 265
101 59 103 123 114 116 107 114 106 66 332 187 173 167 170 171 167 151 139 121 98 76 46 27 13 4 3 5 359 358 1 354 350 346 340 336 337 333 331 335 342 340 337 329 311 278 263 254 257
100 122 85 109 104 97 110 89 84 48 118 148 171 169 172 172 160 156 145 138 112 65 32 21 21 13 10 8 1 0 6 1 347 342 338 337 339 343 350 345 348 347 346 337 335 322 284 264 251
99 113 113 88 93 112 111 101 84 77 123 140 154 151 167 167 171 161 161 183 134 65 30 20 23 16 13 9 3 6 4 352 342 333 333 338 346 351 354 352 347 346 346 343 334 328 318 291 268
113 92 94 46 67 109 108 68 66 115 119 114 116 147 170 175 162 137 170 185 154 109 26 22 21 12 9 6 3 2 10 5 355 343 340 342 345 350 353 352 357 358 355 355 344 329 319 309 289
101 108 156 20 19 116 333 62 126 149 150 144 168 170 165 176 190 184 198 209 203 223 345 13 13 3 3 2 359 352 353 353 348 343 336 349 351 348 350 352 348 348 348 345 342 335 322 308 293
48 220 137 116 29 116 30 125 173 164 168 174 194 195 203 209 208 204 207 240 242 243 274 347 356 354 355 355 357 348 342 338 339 344 332 337 339 340 341 346 345 341 343 343 337 331 320 311 307
190 187 112 102 55 95 90 112 149 182 188 200 230 216 216 217 220 211 233 271 245 246 276 305 331 341 347 349 355 349 340 337 334 332 329 330 331 327 334 337 340 342 344 343 339 335 327 312 308
131 140 119 107 124 70 88 108 49 223 206 225 230 220 226 229 229 230 232 259 251 256 263 284 309 329 331 343 349 350 351 354 347 335 327 326 326 328 327 333 336 341 344 346 344 342 337 320 304
138 138 124 107 142 110 142 99 120 88 45 292 234 225 235 253 258 251 247 263 284 287 265 270 300 315 324 340 344 349 353 360 3 357 330 321 323 321 325 326 330 336 343 348 351 355 352 340 315
180 191 173 149 136 103 143 132 205 213 276 300 249 242 252 265 278 268 256 264 252 256 257 270 290 307 323 334 338 343 347 347 348 351 347 329 331 330 330 323 327 331 336 346 349 347 344 341 330
233 280 155 144 169 161 238 275 255 304 303 283 263 247 248 254 264 275 249 264 253 271 266 281 291 303 315 327 331 332 337 335 336 340 344 343 331 327 327 325 322 326 336 345 345 345 345 338 330
60 112 132 141 110 144 130 250 96 299 327 2 289 254 249 247 254 288 276 269 268 276 275 280 288 298 311 322 326 326 337 333 335 337 332 334 331 326 322 322 322 331 334 339 340 343 340 332 336
123 113 100 108 136 220 95 288 92 27 341 336 349 322 274 257 255 279 294 289 268 283 281 289 288 298 314 328 330 320 332 331 334 335 329 324 329 328 326 322 330 336 335 334 345 351 352 348 354
150 164 179 222 213 335 115 187 61 326 309 300 331 331 326 287 264 276 289 287 297 279 295 291 282 297 315 331 331 310 322 331 335 339 338 328 322 322 324 317 343 343 342 345 348 351 352 351 349
157 287 289 287 285 99 157 156 87 342 281 306 315 322 344 343 316 298 295 303 297 304 293 301 284 289 315 331 328 308 324 332 340 357 359 358 345 336 344 335 352 349 351 355 353 352 351 360 349
156 243 45 108 103 214 127 152 182 44 51 13 11 7 358 354 342 329 330 324 316 315 287 301 287 286 304 329 328 303 315 329 336 356 8 10 10 11 2 342 345 345 351 1 357 352 342 351 350
39 117 231 151 232 241 153 187 41 347 358 20 26 20 14 19 19 12 356 344 328 323 304 291 291 280 291 318 326 293 300 312 326 330 333 344 356 354 343 336 304 322 346 349 348 344 343 338 346
5 95 65 91 350 291 221 128 360 357 35 45 42 36 28 23 23 21 10 359 352 340 319 302 297 287 288 296 312 292 291 284 292 303 315 322 317 343 346 2 341 310 319 332 342 349 353 346 354
69 44 346 290 157 62 329 119 30 57 48 33 22 5 358 2 356 344 334 337 344 335 337 325 311 315 295 287 299 294 277 287 277 286 304 310 314 306 327 333 344 328 318 315 338 5 14 22 22